Weather History for Owosso, MI

Change the Weather History Date:

Friday, February 8, 2013

  Actual Average (KFNT) Record (KFNT)
Temperature  
Mean Temperature 20 °F 23 °F  
Max Temperature 30 °F 31 °F 57 °F (1937)
Min Temperature 11 °F 16 °F -13 °F (1974)
Degree Days  
Heating Degree Days 44 42  
Month to date heating degree days 336  
Since 1 July heating degree days 4300  
Cooling Degree Days 0 0  
Month to date cooling degree days 0  
Year to date cooling degree days 0  
Moisture  
Dew Point 19 °F    
Average Humidity 80    
Maximum Humidity 94    
Minimum Humidity 54    
Precipitation  
Precipitation 0.00 in 0.04 in 0.86 in (2001)
Month to date precipitation 0.37  
Year to date precipitation 2.00  
Snow  
Snow 0.00 in 0.40 in 5.60 in (1994)
Month to date snowfall 3.2  
Since 1 July snowfall 31.0  
Snow Depth -    
Sea Level Pressure  
Sea Level Pressure 30.09 in    
Wind  
Wind Speed 9 mph (North)    
Max Wind Speed 17 mph    
Max Gust Speed 26 mph    
Visibility 7 miles    
Events Snow    
T = Trace of Precipitation, MM = Missing Value Source: NWS Daily Summary

Daily Weather History Graph

Daily Weather History Graph

Search for Another Location

Airport:

Trip Planner

Search our weather history database for the weather conditions in past years. The results will help you decide how hot, cold, wet, or windy it might be!

Date:

Astronomy

Feb. 08, 2013 Rise Set
Actual Time 7:43 AM EST 5:58 PM EST
Civil Twilight 7:13 AM EST 6:28 PM EST
Nautical Twilight 6:40 AM EST 7:02 PM EST
Astronomical Twilight 6:07 AM EST 7:35 PM EST
Moon 6:12 AM EST (2/8) 4:30 PM EST (2/8)
Length of Visible Light 11h 15m
Length of Day
10h 15m
Waning Crescent, 3% of the Moon is Illuminated
Feb 8
Waning Crescent
Feb 10
New
Feb 17
First Quarter
Feb 25
Full
Mar 4
Last Quarter

Hourly Weather History & Observations

Time (EST) Temp. Windchill Dew Point Humidity Pressure Visibility Wind Dir Wind Speed Gust Speed Precip Events Conditions
12:15 AM 29.3 °F 22.3 °F 27.3 °F 92% 29.87 in 1.0 mi ENE 6.9 mph - N/A Snow Snow
12:35 AM 29.1 °F 20.0 °F 27.1 °F 92% 29.85 in 1.0 mi ENE 10.4 mph - N/A Snow Snow
12:55 AM 29.1 °F 20.6 °F 27.1 °F 92% 29.85 in 1.0 mi ENE 9.2 mph - N/A Snow Snow
1:15 AM 29.1 °F 23.0 °F 27.3 °F 93% 29.84 in 0.8 mi ENE 5.8 mph - N/A Snow Snow
1:34 AM 28.9 °F 21.9 °F 27.1 °F 93% 29.84 in 1.2 mi NE 6.9 mph - N/A Snow Light Snow
1:55 AM 28.9 °F 23.9 °F 27.1 °F 93% 29.84 in 1.5 mi NNE 4.6 mph - N/A Snow Light Snow
2:15 AM 28.9 °F 22.8 °F 27.1 °F 93% 29.84 in 1.8 mi NNE 5.8 mph - N/A Snow Light Snow
2:34 AM 29.1 °F 22.1 °F 27.3 °F 93% 29.83 in 1.2 mi North 6.9 mph - N/A Snow Light Snow
2:55 AM 29.1 °F 23.0 °F 27.5 °F 94% 29.84 in 1.8 mi North 5.8 mph - N/A Snow Light Snow
3:15 AM 29.3 °F 22.3 °F 27.5 °F 93% 29.84 in 3.0 mi North 6.9 mph - N/A Snow Light Snow
3:34 AM 29.3 °F 20.8 °F 27.5 °F 93% 29.84 in 3.0 mi North 9.2 mph - N/A Snow Light Snow
3:55 AM 29.3 °F 20.8 °F 27.9 °F 94% 29.84 in 3.0 mi North 9.2 mph - N/A Snow Light Snow
4:35 AM 29.8 °F 20.3 °F 28.0 °F 93% 29.84 in 4.0 mi North 11.5 mph 18.4 mph N/A   Overcast
4:55 AM 29.7 °F 19.6 °F 27.9 °F 93% 29.85 in 3.0 mi North 12.7 mph 19.6 mph N/A Snow Light Snow
5:15 AM 29.5 °F 18.8 °F 27.5 °F 92% 29.86 in 3.0 mi North 13.8 mph 19.6 mph N/A Snow Light Snow
5:35 AM 29.7 °F 18.6 °F 27.5 °F 92% 29.87 in 2.0 mi North 15.0 mph 21.9 mph N/A Snow Light Snow
6:14 AM 29.7 °F 19.6 °F 27.5 °F 92% 29.89 in 1.0 mi North 12.7 mph 21.9 mph N/A Snow Snow
6:35 AM 29.3 °F 18.6 °F 27.5 °F 93% 29.91 in 1.8 mi North 13.8 mph 20.7 mph N/A Snow Light Snow
6:54 AM 29.3 °F 18.2 °F 27.3 °F 92% 29.92 in 2.0 mi North 15.0 mph 21.9 mph N/A Snow Light Snow
7:15 AM 28.9 °F 17.7 °F 26.6 °F 91% 29.94 in 2.5 mi North 15.0 mph 21.9 mph N/A Snow Light Snow
7:35 AM 28.6 °F 16.4 °F 26.4 °F 92% 29.95 in 1.5 mi North 17.3 mph 24.2 mph N/A Snow Light Snow
7:55 AM 28.2 °F 17.2 °F 26.1 °F 92% 29.97 in 0.8 mi North 13.8 mph 21.9 mph N/A Snow Light Snow
8:15 AM 27.3 °F 14.8 °F 24.8 °F 90% 29.98 in 1.5 mi North 17.3 mph 25.3 mph N/A Snow Light Snow
8:34 AM 26.2 °F 15.8 °F 23.5 °F 90% 30.00 in 1.5 mi North 11.5 mph 24.2 mph N/A Snow Light Snow
8:55 AM 25.3 °F 14.1 °F 22.1 °F 87% 30.01 in 3.0 mi North 12.7 mph 26.5 mph N/A Snow Light Snow
9:15 AM 25.3 °F 14.1 °F 21.9 °F 87% 30.03 in 2.0 mi North 12.7 mph 24.2 mph N/A Snow Light Snow
9:34 AM 25.2 °F 13.9 °F 21.2 °F 85% 30.04 in 4.0 mi North 12.7 mph 23.0 mph N/A   Overcast
9:55 AM 24.8 °F 14.0 °F 20.3 °F 83% 30.05 in 4.0 mi North 11.5 mph 20.7 mph N/A   Haze
10:15 AM 24.6 °F 12.7 °F 19.4 °F 81% 30.07 in 7.0 mi NNW 13.8 mph 26.5 mph N/A   Overcast
10:35 AM 25.0 °F 13.1 °F 18.9 °F 78% 30.08 in 7.0 mi NNW 13.8 mph 20.7 mph N/A   Overcast
10:55 AM 24.8 °F 14.6 °F 18.0 °F 75% 30.09 in 10.0 mi North 10.4 mph 23.0 mph N/A   Overcast
11:15 AM 25.3 °F 13.6 °F 17.6 °F 72% 30.11 in 10.0 mi North 13.8 mph 19.6 mph N/A   Overcast
11:55 AM 25.7 °F 13.5 °F 17.6 °F 71% 30.12 in 10.0 mi North 15.0 mph 21.9 mph N/A   Overcast
12:15 PM 25.7 °F 14.6 °F 17.4 °F 71% 30.12 in 10.0 mi North 12.7 mph 18.4 mph N/A   Overcast
12:35 PM 26.1 °F 14.0 °F 17.4 °F 70% 30.12 in 10.0 mi North 15.0 mph 19.6 mph N/A   Overcast
12:55 PM 26.6 °F 16.8 °F 17.6 °F 69% 30.12 in 10.0 mi North 10.4 mph 17.3 mph N/A   Overcast
1:15 PM 27.1 °F 16.9 °F 17.6 °F 67% 30.13 in 10.0 mi North 11.5 mph 17.3 mph N/A   Overcast
1:35 PM 28.0 °F 17.5 °F 17.8 °F 65% 30.13 in 10.0 mi North 12.7 mph 16.1 mph N/A   Overcast
1:54 PM 28.6 °F 19.3 °F 18.1 °F 65% 30.14 in 10.0 mi North 10.4 mph - N/A   Mostly Cloudy
2:15 PM 28.8 °F 20.2 °F 18.3 °F 65% 30.15 in 10.0 mi North 9.2 mph - N/A   Scattered Clouds
2:35 PM 29.8 °F 20.9 °F 18.0 °F 61% 30.15 in 10.0 mi North 10.4 mph - N/A   Clear
2:54 PM 29.3 °F 20.8 °F 17.4 °F 61% 30.15 in 10.0 mi North 9.2 mph - N/A   Clear
3:15 PM 30.6 °F 22.4 °F 16.9 °F 57% 30.16 in 10.0 mi NNW 9.2 mph - N/A   Clear
3:34 PM 30.2 °F 21.3 °F 16.5 °F 57% 30.17 in 10.0 mi NNW 10.4 mph 16.1 mph N/A   Clear
3:55 PM 30.7 °F 22.6 °F 16.7 °F 56% 30.17 in 10.0 mi NNW 9.2 mph - N/A   Clear
4:15 PM 30.7 °F 22.0 °F 16.3 °F 55% 30.18 in 10.0 mi NNW 10.4 mph 16.1 mph N/A   Clear
4:34 PM 30.6 °F 22.4 °F 15.8 °F 54% 30.18 in 10.0 mi NNW 9.2 mph - N/A   Clear
4:55 PM 30.2 °F 21.9 °F 15.4 °F 54% 30.20 in 10.0 mi North 9.2 mph - N/A   Clear
5:15 PM 28.8 °F 21.7 °F 14.7 °F 56% 30.21 in 10.0 mi North 6.9 mph - N/A   Scattered Clouds
5:35 PM 27.7 °F 21.3 °F 14.9 °F 59% 30.23 in 10.0 mi North 5.8 mph - N/A   Clear
5:55 PM 26.6 °F 20.0 °F 14.7 °F 61% 30.24 in 10.0 mi North 5.8 mph - N/A   Clear
6:35 PM 24.8 °F 20.5 °F 13.8 °F 63% 30.26 in 10.0 mi North 3.5 mph - N/A   Clear
6:55 PM 22.8 °F - 13.1 °F 66% 30.26 in 10.0 mi Calm Calm - N/A   Clear
7:15 PM 21.2 °F - 13.1 °F 71% 30.26 in 10.0 mi Calm Calm - N/A   Clear
7:35 PM 19.2 °F - 12.2 °F 74% 30.27 in 10.0 mi Calm Calm - N/A   Clear
7:55 PM 19.6 °F 14.5 °F 12.9 °F 75% 30.28 in 10.0 mi North 3.5 mph - N/A   Clear
8:15 PM 18.0 °F - 11.3 °F 75% 30.29 in 10.0 mi Calm Calm - N/A   Clear
8:35 PM 16.9 °F - 12.2 °F 82% 30.29 in 10.0 mi Calm Calm - N/A   Clear
8:54 PM 16.7 °F - 12.4 °F 83% 30.30 in 10.0 mi Calm Calm - N/A   Clear
9:15 PM 14.0 °F - 10.6 °F 86% 30.31 in 10.0 mi Calm Calm - N/A   Clear
9:35 PM 12.7 °F - 9.7 °F 88% 30.32 in 10.0 mi Calm Calm - N/A   Clear
9:54 PM 11.5 °F - 8.1 °F 86% 30.32 in 10.0 mi Calm Calm - N/A   Clear
10:15 PM 16.0 °F - 12.9 °F 88% 30.33 in 10.0 mi Calm Calm - N/A   Clear
10:35 PM 16.0 °F - 12.2 °F 85% 30.33 in 10.0 mi Calm Calm - N/A   Clear
10:55 PM 15.3 °F - 12.0 °F 87% 30.34 in 10.0 mi Calm Calm - N/A   Clear
11:15 PM 12.2 °F - 9.0 °F 87% 30.34 in 10.0 mi Calm Calm - N/A   Clear
11:35 PM 11.5 °F - 8.4 °F 87% 30.35 in 10.0 mi Calm Calm - N/A   Clear
11:55 PM 11.1 °F - 8.1 °F 87% 30.35 in 10.0 mi Calm Calm - N/A   Clear